Weather in Isakovskaya

Russia / Arkhangel'skaya Oblast'     62°19′48″N   44°45′13″E
temp.,
°C
wind,
m/s
gust,
m/s
humid.,
%
clouds,
%
prec.,
mm/h
press.,
hPa
HPBL,
m
18 january, mon
mon1800:00−16ssw2697100 0.6 1011283
03:00−15sw2597100 1.2 1011261
06:00−15sw1297100 0.5 101139
09:00−15ssw129795 0.6 101248
12:00−14sse129698 0.1 1013109
15:00−13sse239799 0.3 1013107
18:00−14sse2297100 0.1 101359
21:00−15s229799 0.2 101439
19 january, tue
tue1900:00−15s2497100 0.1 101399
03:00−15s2497100 0.2 1014125
06:00−15s2397100 0.1 101295
09:00−14s2497100 0.2 1012116
12:00−12s2395100 0.2 1011189
15:00−11s2396100 0.4 1011105
18:00−13ssw229785 0.2 101054
21:00−12sw249792 0.4 1010142
20 january, wed
wed2000:00−13wsw2497100 0.1 1010105
03:00−13wsw229796 0.2 101062
06:00−14wsw239793 0.2 100986
09:00−14w249796 0.3 1009120
12:00−13w269688 0.1 1009274
15:00−13wnw269694 0.2 1010249
18:00−17wnw2598100 0.1 1011133
21:00−19wnw2310099 0.1 101272
21 january, thu
thu2100:00−21nw239982 0.0 101241
03:00−23wnw229984 0.1 101341
06:00−24nw129894 0.0 101221
09:00−24nw119897 0.1 101220
12:00−23n119796 0.0 101281
15:00−25ne129779 0.0 101020
18:00−27ene239636 0.0 100956
21:00−29ne249625 0.0 100979
22 january, fri
fri2200:00−29ne25954 0.0 100991
03:00−31nne23954 0.0 101057
06:00−31nne239538 0.0 101256
09:00−31nne229524 0.0 101434
12:00−28nne13930 0.0 1017145
15:00−29n22950 0.0 101825
18:00−31ne22950 0.0 102119
21:00−31ene22950 0.0 102320